Date,TemperatureHighF,TemperatureAvgF,TemperatureLowF,DewpointHighF,DewpointAvgF,DewpointLowF,HumidityHigh,HumidityAvg,HumidityLow,PressureMaxIn,PressureMinIn,WindSpeedMaxMPH,WindSpeedAvgMPH,GustSpeedMaxMPH,PrecipitationSumIn
2013-2-1,18,16,12,13,10,7,84,78,68,30.20,29.87,15,8,21,0.00
2013-2-2,17,14,8,13,10,3,88,81,70,30.16,30.00,6,2,10,0.00
2013-2-3,19,13,8,14,9,3,85,81,70,30.03,29.85,15,3,18,0.00
2013-2-4,21,16,9,15,11,4,89,82,73,30.02,29.90,5,1,6,0.01
2013-2-5,28,18,4,25,14,0,88,83,71,29.99,29.76,12,3,19,0.00
2013-2-6,28,23,15,22,18,11,91,79,70,30.26,29.99,5,3,7,0.00
2013-2-7,32,28,24,28,24,21,94,85,75,30.26,29.91,10,5,12,0.01
2013-2-8,28,25,14,27,21,9,95,87,70,30.38,29.88,14,8,20,0.00
2013-2-9,23,12,-5,18,8,-9,91,85,77,30.47,30.28,12,1,13,0.00
2013-2-10,38,26,12,36,23,9,94,87,73,30.27,29.60,19,6,21,0.01
2013-2-11,41,36,32,40,32,27,95,85,75,29.81,29.46,19,7,21,0.00
2013-2-12,32,29,26,27,24,21,82,80,75,30.00,29.81,13,7,18,0.00
2013-2-13,35,30,24,29,26,22,90,84,79,29.91,29.72,4,1,8,0.00
2013-2-14,40,34,30,35,31,25,94,89,82,29.82,29.59,20,4,22,0.04
2013-2-15,30,24,21,25,18,15,84,76,66,30.13,29.83,17,10,18,0.00
2013-2-16,21,19,18,17,16,14,89,85,80,30.10,30.03,6,1,7,0.00
2013-2-17,22,20,10,14,11,5,79,69,57,30.19,30.16,8,3,9,0.00
2013-2-18,42,31,20,40,24,13,89,73,61,30.17,29.48,15,7,16,0.03
2013-2-19,43,29,18,40,25,14,92,85,74,29.89,29.31,16,9,21,0.11
2013-2-20,22,20,16,17,13,10,82,76,70,30.26,29.88,18,13,23,0.00
2013-2-21,22,20,18,19,15,12,89,80,72,30.41,30.25,14,7,21,0.00
2013-2-22,32,25,20,31,23,18,96,92,85,30.28,29.83,13,7,17,0.00
2013-2-23,32,29,25,32,26,22,96,90,80,29.89,29.82,7,2,10,0.05
2013-2-24,36,30,24,29,25,22,93,82,65,30.14,29.86,12,4,13,0.01
2013-2-25,38,31,26,29,24,22,87,75,62,30.22,30.11,6,1,8,0.00
2013-2-26,34,30,23,32,26,19,96,86,77,30.14,29.57,18,10,25,0.00
2013-2-27,34,33,32,33,32,32,97,97,96,29.58,29.51,14,8,20,0.14